E8826 Weather Reports


Display with metric or nautical units.
time (UTC)temp
F
wind
direction
speed
MPH
gust
MPH
rain 1hr
in
rain 24hr
in
rain mn
in
humidity
%
barometer
mb
20260507024455 0 348 2.0 6.0 0.00 0.00 0.00 1014.2
20260507023456 0 352 2.0 5.0 0.00 0.00 0.00 1014.2
20260507022454 0 34 2.0 5.0 0.00 0.00 0.00 1014.0
20260507021455 0 34 2.0 5.0 0.00 0.00 0.00 1013.9
20260507020456 0 19 2.0 6.0 0.00 0.00 0.00 1013.8
20260507015456 0 358 2.0 4.0 0.00 0.00 0.00 1013.8
20260507014936 0 13 2.0 5.0 0.00 0.00 0.00 1013.8
20260507013930 0 13 2.0 6.0 0.00 0.00 0.00 1013.8
20260507012452 0 17 3.0 6.0 0.00 0.00 0.00 1013.9
20260507011450 0 13 3.0 6.0 0.00 0.00 0.00 1013.8
20260507010450 0 19 2.0 6.0 0.00 0.00 0.00 1013.8
20260507005920 0 34 2.0 5.0 0.00 0.00 0.00 1013.8
20260507004448 0 22 2.0 5.0 0.00 0.00 0.00 1013.8
20260507003934 0 341 2.0 6.0 0.00 0.00 0.00 1013.8
20260507002446 0 30 2.0 5.0 0.00 0.00 0.00 1013.8
20260507001444 0 334 3.0 6.0 0.00 0.00 0.00 1013.8
20260507000442 0 38 2.0 6.0 0.00 0.00 0.00 1013.7
20260506235441 0 19 1.0 5.0 0.00 0.00 0.00 1013.8
20260506234441 0 352 2.0 5.0 0.00 0.00 0.00 1013.8
20260506233439 0 14 2.0 7.0 0.00 0.00 0.00 1013.7
20260506232441 43 37 3.0 7.0 0.00 0.00 0.00 91 1013.8
20260506231438 43 29 2.0 4.0 0.00 0.00 0.00 90 1013.8
20260506230452 0 356 2.0 6.0 0.00 0.00 0.00 1013.8
20260506225439 44 19 2.0 5.0 0.00 0.00 0.00 89 1013.7
20260506224437 0 19 2.0 5.0 0.00 0.00 0.00 1013.6
20260506223437 0 26 2.0 9.0 0.00 0.00 0.00 1013.6
20260506222436 44 19 2.0 6.0 0.00 0.00 0.00 89 1013.6
20260506221432 44 335 2.0 6.0 0.00 0.00 0.00 89 1013.5
20260506221214 44 26 3.0 6.0 0.00 0.00 0.00 89 1013.5
20260506215432 0 14 4.0 7.0 0.00 0.00 0.00 1013.4
20260506214433 45 7 4.0 7.0 0.00 0.00 0.00 89 1013.4
20260506213433 45 26 4.0 9.0 0.00 0.00 0.00 89 1013.5
20260506212433 45 27 3.0 9.0 0.00 0.00 0.00 89 1013.5
20260506211434 45 341 2.0 6.0 0.00 0.00 0.00 90 1013.2
20260506210431 45 33 4.0 7.0 0.00 0.00 0.00 90 1013.2
20260506205431 45 38 4.0 9.0 0.00 0.00 0.00 90 1013.2
20260506204912 46 20 4.0 10.0 0.00 0.00 0.00 89 1013.2
20260506203431 46 30 4.0 9.0 0.00 0.00 0.00 89 1013.2
20260506202432 46 12 3.0 7.0 0.00 0.00 0.00 89 1013.2
20260506201432 46 29 2.0 7.0 0.00 0.00 0.00 89 1013.1
20260506200431 47 41 5.0 11.0 0.00 0.00 0.00 88 1013.0
20260506195432 47 13 4.0 9.0 0.00 0.00 0.00 87 1012.9
20260506194434 47 24 4.0 11.0 0.00 0.00 0.00 86 1012.8
20260506193911 47 34 4.0 11.0 0.00 0.00 0.00 86 1012.7
20260506192431 48 31 4.0 9.0 0.00 0.00 0.00 85 1012.6
20260506191432 49 26 6.0 10.0 0.00 0.00 0.00 84 1012.4
20260506190434 49 12 8.0 13.0 0.00 0.00 0.00 83 1012.3
20260506185432 50 44 7.0 15.0 0.00 0.00 0.00 82 1012.2
20260506184431 50 31 7.0 13.0 0.00 0.00 0.00 81 1012.2
20260506183432 51 33 6.0 11.0 0.00 0.00 0.00 79 1012.0
20260506182433 51 321 5.0 14.0 0.00 0.00 0.00 77 1011.9
20260506181431 52 31 6.0 14.0 0.00 0.00 0.00 75 1011.8
20260506180431 52 41 4.0 16.0 0.00 0.00 0.00 73 1011.6
20260506175920 53 26 7.0 17.0 0.00 0.00 0.00 72 1011.6
20260506174432 54 41 5.0 16.0 0.00 0.00 0.00 71 1011.5
20260506173921 54 48 4.0 17.0 0.00 0.00 0.00 71 1011.3
20260506172434 55 10 8.0 14.0 0.00 0.00 0.00 68 1011.2
20260506171913 55 34 6.0 13.0 0.00 0.00 0.00 66 1011.2
20260506170916 56 33 7.0 16.0 0.00 0.00 0.00 65 1011.1
20260506165433 56 57 10.0 17.0 0.00 0.00 0.00 65 1011.0
20260506164431 57 40 7.0 16.0 0.00 0.00 0.00 64 1011.1
20260506163429 57 41 6.0 19.0 0.00 0.00 0.00 63 1011.1
20260506162428 57 30 10.0 19.0 0.00 0.00 0.00 62 1011.1
20260506161429 57 74 6.0 17.0 0.00 0.00 0.00 64 1011.1
20260506160428 56 34 10.0 17.0 0.00 0.00 0.00 67 1011.1
20260506155425 55 34 8.0 17.0 0.00 0.00 0.00 67 1010.9
20260506154424 0 67 8.0 19.0 0.00 0.00 0.00 1010.9
20260506153421 0 24 8.0 17.0 0.00 0.00 0.00 1010.9
20260506152423 58 33 10.0 18.0 0.00 0.00 0.00 68 1011.0
20260506151418 57 51 9.0 17.0 0.00 0.00 0.00 68 1010.8
20260506150418 0 51 8.0 16.0 0.00 0.00 0.00 1010.8
20260506145418 57 34 10.0 16.0 0.00 0.00 0.00 68 1010.8
20260506144418 59 27 10.0 16.0 0.00 0.00 0.00 67 1010.7
20260506143416 60 55 11.0 19.0 0.00 0.00 0.00 65 1010.7
20260506142417 60 44 10.0 17.0 0.00 0.00 0.00 67 1010.6
20260506141413 59 38 11.0 19.0 0.00 0.00 0.00 69 1010.6
20260506140410 58 30 9.0 17.0 0.00 0.00 0.00 71 1010.7
20260506135410 57 36 8.0 19.0 0.00 0.00 0.00 69 1010.7
20260506134847 59 34 8.0 19.0 0.00 0.00 0.00 68 1010.6
20260506133407 59 31 10.0 19.0 0.00 0.00 0.00 67 1010.4
20260506132409 59 33 12.0 18.0 0.00 0.00 0.00 68 1010.6
20260506131407 59 54 9.0 17.0 0.00 0.00 0.00 68 1010.5
20260506130408 58 37 10.0 21.0 0.00 0.00 0.00 68 1010.4
20260506124406 59 43 8.0 20.0 0.00 0.00 0.00 65 1010.3
20260506123406 60 65 7.0 21.0 0.00 0.00 0.00 65 1010.3
20260506122405 60 69 11.0 21.0 0.00 0.00 0.00 63 1010.3
20260506121850 60 7 9.0 20.0 0.00 0.00 0.00 66 1010.3
20260506120407 60 34 11.0 22.0 0.00 0.00 0.00 66 1010.1
20260506115413 60 26 10.0 17.0 0.00 0.00 0.00 67 1010.2
20260506114403 59 57 8.0 18.0 0.00 0.00 0.00 65 1010.2
20260506112406 58 60 10.0 17.0 0.00 0.00 0.00 67 1010.1
20260506111404 58 17 7.0 19.0 0.00 0.00 0.00 68 1010.1
20260506110405 59 36 9.0 15.0 0.00 0.00 0.00 68 1010.1
20260506105405 60 43 7.0 18.0 0.00 0.00 0.00 65 1010.0
20260506104403 61 78 9.0 16.0 0.00 0.00 0.00 69 1010.1
20260506103404 59 82 6.0 16.0 0.00 0.00 0.00 63 1010.1
20260506102407 59 14 12.0 22.0 0.00 0.00 0.00 68 1009.9
20260506101405 59 16 10.0 17.0 0.00 0.00 0.00 71 1010.0
20260506100403 58 38 6.0 15.0 0.00 0.00 0.00 71 1010.0
20260506095403 58 38 6.0 13.0 0.00 0.00 0.00 74 1009.9
20260506094403 56 43 7.0 13.0 0.00 0.00 0.00 71 1009.9
20260506093402 57 38 10.0 19.0 0.00 0.00 0.00 73 1009.8
20260506092402 57 65 7.0 20.0 0.00 0.00 0.00 72 1009.8
20260506091847 57 72 7.0 15.0 0.00 0.00 0.00 71 1009.8
20260506090410 58 27 6.0 15.0 0.00 0.00 0.00 74 1009.7
20260506085400 56 43 8.0 19.0 0.00 0.00 0.00 73 1009.9
20260506084359 56 27 9.0 18.0 0.00 0.00 0.00 73 1009.8
20260506083400 55 24 5.0 18.0 0.00 0.00 0.00 73 1009.7
20260506082834 55 54 9.0 16.0 0.00 0.00 0.00 75 1009.7
20260506081359 55 64 6.0 16.0 0.00 0.00 0.00 77 1009.6
20260506080356 55 51 9.0 17.0 0.00 0.00 0.00 79 1009.6
20260506073358 54 16 9.0 14.0 0.00 0.00 0.00 83 1009.5
20260506072409 53 62 6.0 12.0 0.00 0.00 0.00 84 1009.5
20260506071357 53 33 6.0 14.0 0.00 0.00 0.00 85 1009.6
20260506070357 52 37 9.0 16.0 0.00 0.00 0.00 86 1009.5
20260506062229 50 27 6.0 13.0 0.00 0.00 0.00 92 1009.3
20260506060751 50 40 6.0 12.0 0.00 0.00 0.00 92 1009.3
20260506051234 48 303 4.0 10.0 0.00 0.00 0.00 90 1009.2
20260506044223 48 40 6.0 12.0 0.00 0.00 0.00 90 1009.3
20260506043224 48 27 4.0 10.0 0.00 0.00 0.00 89 1009.3
20260506042223 48 29 4.0 13.0 0.00 0.00 0.00 89 1009.3
20260506041223 48 31 6.0 11.0 0.00 0.00 0.00 89 1009.4
20260506035745 49 47 5.0 10.0 0.00 0.00 0.00 89 1009.3
20260506034743 49 26 4.0 12.0 0.00 0.00 0.00 89 1009.3
20260506033745 49 20 6.0 10.0 0.00 0.00 0.00 89 1009.4
20260506032743 49 43 5.0 14.0 0.00 0.00 0.00 89 1009.4
20260506032219 49 37 6.0 12.0 0.00 0.00 0.00 89 1009.5
20260506030740 49 26 5.0 12.0 0.00 0.00 0.00 89 1009.5
20260506030219 49 64 6.0 12.0 0.00 0.00 0.00 89 1009.6